GFSSGP_prec_cloud_126.txt.gz
Cloud_Cover
0 0 0 0 0 0 0 0 0 0 0 0 5 2 2 5 0 2 0 0 0 8 0 4 0 0 0 0 0 2 0 7 0 0 0 0 12 97 51 0 0 0 0 14 29 2 0 1 6
4 0 0 0 0 0 0 0 0 0 0 2 4 18 2 1 5 4 2 0 0 32 5 29 0 0 0 0 0 0 0 1 0 0 0 0 42 100 13 0 0 0 0 0 0 0 0 0 13
2 4 87 81 28 5 20 4 0 0 5 4 5 5 10 5 2 13 7 2 0 38 2 18 0 0 0 0 0 0 0 0 0 0 0 0 31 66 5 0 0 0 0 0 0 12 0 0 1
53 25 67 83 100 45 48 2 0 1 4 5 5 8 5 22 5 1 11 14 9 36 2 4 0 0 0 0 0 0 0 0 0 0 0 0 0 0 2 0 0 0 0 2 100 95 3 0 0
1 0 2 0 1 0 0 0 0 4 5 5 11 5 4 5 55 28 2 8 43 54 3 19 0 0 0 0 0 0 0 0 0 0 0 8 36 52 23 0 0 0 0 1 24 1 0 0 0
0 0 0 0 0 0 0 0 0 0 5 5 5 5 5 5 5 17 82 6 8 34 11 8 0 0 0 0 0 0 0 34 0 0 1 0 2 20 17 0 0 0 0 0 1 0 0 0 8
0 0 0 0 0 0 0 0 0 0 0 1 5 4 25 67 5 3 99 33 24 5 4 4 5 5 5 4 3 0 0 10 0 0 1 4 0 11 36 6 0 0 0 0 0 0 6 36 0
0 0 0 0 0 0 0 0 0 0 0 0 0 0 2 76 40 6 54 75 100 65 100 100 45 5 5 13 25 6 5 2 1 0 0 1 4 26 100 20 2 0 0 2 5 5 0 0 0
0 0 0 0 0 0 0 0 0 0 0 0 0 0 0 0 4 22 22 100 100 100 100 100 100 100 100 77 100 100 100 92 9 5 5 5 5 41 58 5 5 5 5 5 67 97 3 0 0
0 0 0 0 0 0 0 0 0 0 0 0 0 0 0 0 0 51 100 100 100 100 99 100 100 100 100 100 100 100 100 96 99 99 22 5 5 22 79 5 5 5 24 60 100 29 5 4 1
0 0 0 0 0 0 0 0 0 0 0 0 0 0 0 0 0 1 100 65 25 100 100 100 100 100 100 100 100 100 100 100 100 100 100 45 7 52 100 45 24 14 6 100 98 59 5 5 5
0 0 0 0 0 0 0 0 0 0 0 0 0 0 0 0 0 0 91 39 100 100 100 100 100 100 100 100 100 100 100 100 100 100 100 71 68 70 72 86 86 100 100 100 100 76 5 5 64
0 0 0 0 0 0 0 0 0 0 0 0 3 0 0 0 0 1 9 96 100 100 100 100 100 100 100 100 100 100 100 100 100 100 100 93 99 100 25 74 100 100 100 100 100 100 12 5 5
0 0 0 0 0 0 0 0 0 0 0 4 3 2 0 0 53 88 69 97 100 100 100 100 100 100 100 100 100 100 100 100 100 100 100 100 100 82 58 29 72 89 100 100 95 100 100 86 36
0 0 0 0 0 0 0 0 0 0 0 1 3 1 7 0 100 96 99 94 100 100 100 100 100 100 100 100 100 100 100 100 100 100 100 100 100 100 52 100 48 12 16 74 83 97 100 100 100
0 0 0 0 0 0 0 0 0 0 0 0 3 5 5 5 74 10 10 0 98 100 100 100 100 100 100 100 100 100 100 100 100 100 100 100 100 100 100 100 100 37 33 44 68 100 100 100 100
0 0 0 0 0 0 0 0 0 0 0 1 0 0 2 0 11 72 4 83 100 100 100 100 100 100 100 100 100 100 100 100 100 100 100 100 100 100 100 100 100 99 99 91 65 100 100 100 100
0 0 0 0 0 0 0 0 0 0 0 0 0 0 0 0 10 100 14 100 100 100 100 100 100 100 100 100 100 100 100 100 100 100 100 100 100 100 100 99 100 75 86 89 98 100 97 100 100
0 0 0 0 0 0 0 0 0 0 0 3 0 0 0 0 0 100 19 97 100 100 100 100 100 100 100 100 100 100 100 100 100 100 72 100 100 100 100 100 100 100 100 100 100 100 100 100 100
0 0 0 0 0 0 0 0 0 0 5 5 8 2 10 3 0 0 5 22 74 100 100 100 100 100 100 100 100 100 100 100 100 100 100 100 100 100 100 100 100 100 100 100 100 100 100 100 100
0 0 0 0 0 0 0 0 0 0 5 3 6 100 92 61 2 0 0 20 4 100 98 100 100 100 100 100 100 100 100 100 100 100 100 100 100 100 100 100 100 100 100 100 100 100 100 100 100
0 0 0 0 0 0 0 1 0 0 0 4 44 100 100 100 95 24 0 4 4 87 100 100 100 100 100 100 100 100 100 100 100 100 100 100 100 100 100 100 100 100 100 100 100 100 100 100 100
0 0 0 0 0 1 0 0 0 0 1 22 99 100 100 100 100 89 0 3 5 4 99 100 100 100 100 100 100 100 100 100 100 100 100 100 100 100 100 100 100 100 100 100 100 100 100 100 100
0 0 0 4 0 4 0 0 0 0 2 32 60 100 100 100 100 100 27 5 62 76 94 100 100 100 100 100 100 100 100 100 100 100 100 100 100 100 100 100 100 100 100 100 100 100 100 100 100
0 0 3 5 5 0 0 0 0 0 5 63 100 100 100 100 100 100 100 100 100 100 100 98 90 100 100 100 100 100 100 100 100 100 100 100 100 100 100 100 100 100 100 100 100 100 100 100 100
0 0 4 5 5 4 0 0 0 0 5 60 83 100 100 80 92 100 100 100 100 100 100 100 100 100 94 100 100 100 100 100 100 100 100 100 100 100 100 100 100 100 100 100 100 100 100 100 100
4 0 5 6 5 6 2 0 0 0 0 32 87 100 100 100 100 100 100 100 100 100 100 100 100 100 100 100 100 100 81 100 100 100 100 100 100 100 100 100 100 100 100 100 100 100 100 100 100
0 5 5 72 5 5 5 0 0 0 0 15 82 99 98 100 100 100 100 100 100 100 100 100 100 100 100 100 100 96 100 100 100 100 100 100 100 100 100 100 100 100 100 100 100 100 100 100 100
6 5 18 7 14 5 5 1 0 0 0 14 69 94 90 100 100 100 100 100 100 100 100 100 100 92 100 100 100 100 100 100 100 100 100 100 100 100 100 100 100 100 100 100 100 100 100 100 100
68 5 28 5 5 5 5 5 0 0 0 0 0 35 76 93 100 100 100 100 100 100 100 100 100 100 100 100 100 100 100 100 100 100 100 100 100 100 100 100 100 100 94 100 100 100 100 100 100

GFSSGP_prec_cloud_129.txt.gz
Cloud_Cover
0 0 0 3 0 0 0 0 0 0 0 0 12 50 13 32 25 4 4 0 0 0 3 0 0 0 1 1 1 24 10 0 0 0 4 16 82 74 0 0 0 3 54 0 0 0 0 0 37
5 5 5 8 0 0 0 0 0 0 0 0 0 0 0 5 20 13 25 5 1 0 4 6 0 0 0 0 0 0 11 0 0 0 0 16 100 100 42 0 0 0 2 0 0 3 0 34 100
2 1 0 0 4 5 5 5 5 5 4 2 0 0 0 0 4 5 60 50 19 4 2 10 0 0 0 0 0 0 5 0 0 0 0 100 100 100 8 0 0 0 1 0 0 0 0 89 100
5 5 5 69 19 2 0 0 0 1 2 5 5 0 0 1 0 0 3 99 100 85 8 1 0 0 0 0 3 0 2 0 0 0 2 72 70 100 0 0 0 0 0 0 0 0 0 7 51
0 0 0 0 0 0 0 0 0 0 0 3 4 4 3 5 3 0 0 8 95 100 34 7 0 0 0 16 4 0 0 0 0 0 0 0 59 58 0 0 0 0 91 100 57 0 2 20 27
0 0 0 0 0 0 0 0 0 0 0 0 4 49 5 5 5 5 5 34 27 100 100 5 5 0 0 12 3 0 4 0 0 0 0 0 48 88 0 0 0 0 37 3 0 0 5 0 24
0 0 0 0 0 0 0 0 0 0 0 2 5 5 5 0 3 5 5 5 5 57 100 31 5 2 0 4 0 0 0 3 5 4 11 5 83 100 7 0 0 0 0 8 0 2 33 0 0
0 0 0 0 0 0 0 0 0 0 0 0 0 1 2 2 0 0 5 48 36 12 95 92 66 97 100 100 22 14 3 0 1 5 5 5 5 35 4 1 0 0 8 9 0 70 100 7 0
0 0 0 0 0 0 0 0 0 0 0 0 0 0 0 0 0 0 0 100 92 79 65 99 100 100 100 100 100 96 80 91 5 5 5 49 58 93 5 5 4 0 20 19 0 5 1 0 2
0 0 0 0 0 0 0 0 0 0 0 0 0 0 0 0 0 0 0 0 100 21 75 99 84 100 100 100 100 100 100 100 87 35 43 69 61 92 15 5 26 5 22 34 1 6 1 3 5
0 0 0 0 0 0 0 0 0 0 0 0 0 0 0 0 0 0 0 0 1 5 79 100 100 94 100 100 100 100 100 100 100 100 99 42 36 11 66 38 42 10 6 74 6 4 0 5 5
0 0 0 0 0 0 0 0 0 0 0 0 0 0 0 0 0 0 0 0 0 2 80 100 98 100 100 100 100 100 100 100 100 100 100 100 85 27 24 61 78 98 96 8 5 3 5 5 5
0 0 0 0 0 0 0 0 0 0 0 0 0 0 0 0 0 0 0 0 0 3 72 100 100 100 100 100 100 100 100 100 100 100 100 100 100 100 71 58 62 66 99 100 26 5 5 70 90
0 0 0 0 0 0 0 0 0 0 0 0 5 2 0 0 0 0 0 0 7 56 92 100 100 100 100 100 100 100 100 100 100 100 100 100 100 100 100 79 96 96 100 94 48 22 10 68 98
0 0 0 0 0 0 0 0 0 0 0 0 3 2 4 0 1 0 0 0 14 90 98 100 100 100 100 100 100 100 100 100 100 100 100 100 100 100 100 100 100 100 96 95 100 99 82 5 15
0 0 0 0 0 0 0 0 0 0 0 0 5 4 1 5 5 4 0 0 97 100 100 77 100 100 100 100 100 100 100 100 100 100 100 100 100 100 100 100 100 100 100 100 100 100 99 14 27
0 0 0 0 0 0 0 0 0 0 0 0 0 5 4 3 5 3 0 0 100 100 97 100 100 100 100 100 100 100 100 100 100 100 100 100 100 100 100 100 100 100 100 100 100 100 100 98 68
0 0 0 0 0 0 0 0 0 0 0 0 1 5 0 1 0 0 0 0 100 92 57 100 100 100 100 100 100 100 100 100 100 100 100 100 100 100 100 100 100 100 100 100 100 100 100 100 100
0 0 0 0 0 0 0 0 0 0 0 5 5 56 65 0 0 0 0 0 81 100 100 100 100 100 100 100 100 100 100 100 100 100 100 100 100 100 100 100 100 100 100 100 100 100 100 100 100
0 0 0 0 0 0 0 0 0 0 0 0 1 2 10 64 18 0 0 0 100 100 100 100 100 100 100 100 100 100 100 100 100 100 100 100 99 98 100 100 100 100 100 100 100 100 100 100 100
0 0 0 0 0 0 0 0 0 0 0 0 1 5 73 100 100 45 2 0 0 72 100 100 100 100 100 100 100 100 100 100 100 100 100 100 100 100 83 72 84 87 100 100 100 100 100 100 100
0 0 5 0 0 0 0 1 0 0 0 0 2 30 100 100 100 75 12 2 4 4 100 100 100 100 100 100 100 100 100 100 100 100 100 100 100 100 98 97 95 100 100 100 100 100 100 100 100
1 0 5 0 0 0 0 0 0 0 0 2 8 100 78 100 100 100 7 9 7 20 100 100 100 100 100 100 100 100 100 100 100 100 100 100 100 100 100 100 100 89 100 93 100 99 97 83 65
0 4 2 5 5 4 0 0 0 0 3 56 48 100 90 100 100 100 85 75 100 100 100 100 100 100 100 100 100 100 100 100 100 100 100 100 100 100 100 100 90 95 100 100 76 100 100 100 95
5 5 5 5 7 5 1 0 0 0 0 20 75 100 90 100 100 100 88 96 100 100 100 100 100 100 100 100 100 100 100 100 100 100 100 100 100 100 100 100 100 95 100 100 100 100 100 100 100
74 25 5 5 100 5 5 0 0 0 0 34 90 100 100 98 100 100 100 100 100 100 100 100 100 100 100 100 100 100 100 100 100 100 100 100 100 100 100 100 100 100 100 100 100 100 100 100 100
16 30 68 10 79 21 4 3 0 0 0 0 24 99 98 100 100 100 100 100 100 100 100 100 100 100 100 100 100 100 100 100 100 100 100 100 100 100 100 100 100 100 100 100 100 100 100 100 100
99 20 58 11 53 61 5 5 0 0 0 0 40 97 100 92 100 100 100 100 100 100 100 100 100 100 100 100 100 100 100 100 100 100 100 100 100 100 100 100 100 100 100 100 100 100 100 100 100
100 97 99 10 72 20 5 5 1 0 0 0 0 36 100 100 100 100 100 100 100 100 100 100 100 100 100 100 100 100 100 100 100 100 100 100 100 100 100 100 100 100 100 100 100 100 100 100 100
100 100 100 6 11 54 5 5 5 1 0 0 0 61 100 100 100 100 100 100 100 100 98 100 100 82 100 100 100 100 100 100 100 100 100 100 100 100 100 100 100 100 100 100 100 100 100 100 100

GFSSGP_prec_cloud_135.txt.gz
Cloud_Cover
100 97 8 1 0 0 0 1 5 4 4 3 2 0 0 0 0 2 55 3 5 2 5 56 0 5 33 28 35 6 4 4 6 25 98 0 0 0 2 8 1 1 15 7 17 1 80 8 2
100 13 4 0 0 0 0 0 0 0 0 0 0 0 0 0 0 1 34 100 14 4 5 61 5 0 11 85 28 6 5 5 6 5 96 28 0 0 0 3 0 0 12 0 5 2 0 0 8
99 39 2 0 0 0 0 0 0 0 0 0 0 0 0 0 0 0 0 34 100 36 5 56 5 0 0 38 96 20 92 37 5 8 40 17 2 0 0 1 0 0 0 1 3 1 1 0 1
17 2 0 0 2 0 0 0 0 0 0 0 0 0 0 0 0 0 0 25 1 92 36 24 5 0 0 42 33 100 79 100 65 5 53 56 6 3 0 1 0 1 0 37 12 0 0 74 40
1 0 0 0 0 0 0 0 0 0 0 0 0 0 0 0 0 12 33 17 0 1 49 12 11 5 1 50 26 9 100 79 99 62 61 88 88 79 8 2 8 0 8 0 5 8 4 54 87
5 0 0 0 0 0 0 0 0 0 0 0 0 0 0 0 0 9 74 51 0 1 21 31 51 36 10 7 29 15 8 5 45 42 67 70 82 33 100 26 1 30 0 8 2 0 51 100 81
2 0 0 0 0 0 0 0 0 0 0 0 0 0 0 0 2 0 92 80 32 15 54 88 19 44 5 10 98 22 5 5 6 30 5 5 95 69 2 54 45 24 0 2 0 4 97 100 100
0 0 0 0 0 0 0 0 0 0 0 0 0 0 0 0 3 10 16 99 59 23 52 73 100 46 68 90 74 100 100 94 100 33 58 5 89 86 5 0 1 0 5 7 0 0 64 100 2
0 0 0 0 0 0 0 0 0 0 0 0 0 0 0 0 0 3 65 90 99 85 8 91 96 67 100 94 48 100 100 100 100 100 100 100 96 67 44 47 17 6 11 7 4 7 81 56 0
0 0 0 0 0 0 0 0 0 0 0 0 0 0 0 0 0 0 0 65 100 100 44 2 5 9 51 91 97 100 100 100 100 100 100 100 100 70 98 99 99 79 47 34 38 23 3 0 0
0 0 0 0 0 0 0 0 0 0 0 0 0 0 0 0 0 0 0 0 1 14 71 6 0 0 96 93 57 100 100 100 100 100 100 100 100 100 100 90 20 74 100 100 82 89 52 6 3
0 0 0 0 0 0 0 0 0 0 0 0 0 0 0 0 0 0 0 0 0 0 0 24 2 0 48 100 23 100 100 100 100 100 100 100 100 100 100 100 100 100 92 100 93 24 46 44 39
0 0 0 0 0 0 0 0 0 0 0 0 0 0 0 0 0 0 0 0 0 0 0 0 0 0 69 100 82 77 100 100 100 100 100 100 100 100 100 100 100 100 100 100 93 57 71 73 71
0 0 0 0 0 0 0 0 0 0 0 0 0 0 0 0 0 0 0 0 0 0 0 0 0 0 11 100 97 91 91 80 100 100 100 100 100 100 100 100 100 100 97 100 100 100 100 100 100
0 0 0 0 0 0 0 0 0 0 0 0 0 0 0 0 0 1 1 2 0 0 0 0 0 0 21 49 99 41 94 100 100 100 100 100 100 100 100 100 100 94 100 100 96 100 100 100 100
0 0 0 0 0 0 0 0 0 0 0 0 0 0 0 0 0 0 1 3 3 0 0 0 0 1 22 87 47 70 92 100 100 100 100 100 100 100 100 100 100 99 100 100 100 100 99 100 100
0 0 0 0 0 0 0 0 0 0 0 0 0 0 0 0 0 13 76 99 4 0 0 0 0 2 39 35 4 58 86 100 100 100 100 100 100 100 100 100 100 84 100 100 100 100 100 56 78
0 0 0 0 0 0 0 0 0 0 0 0 0 0 0 0 2 3 87 100 81 0 0 0 0 20 57 51 36 60 100 100 100 100 100 100 100 100 100 100 100 100 96 100 100 100 81 63 32
0 0 0 0 0 0 0 0 0 0 0 0 0 0 0 0 5 23 30 16 100 19 0 43 1 18 62 66 91 73 95 100 100 100 100 100 100 100 100 100 100 100 100 100 100 100 100 92 21
0 0 0 0 0 0 0 0 0 0 0 0 0 0 0 0 14 17 100 8 100 17 12 90 40 82 99 30 40 91 100 100 100 100 100 100 100 100 100 100 100 100 82 100 46 65 21 49 26
0 0 0 0 0 3 0 0 0 0 0 0 0 4 86 100 100 18 92 7 94 31 100 100 100 100 80 47 57 100 100 100 100 100 100 100 100 100 100 58 100 100 100 99 54 100 69 72 60
0 0 0 0 5 5 0 0 0 0 0 0 0 4 69 100 98 96 93 71 67 99 100 100 99 100 99 64 53 100 100 100 100 100 100 100 100 100 100 100 100 100 79 100 98 100 30 55 5
0 0 0 1 5 5 2 0 0 0 0 0 0 0 99 100 100 100 100 100 100 100 100 100 95 100 100 100 100 100 100 100 100 100 100 100 100 100 100 100 100 100 100 90 100 61 10 5 5
0 5 5 5 5 4 4 0 0 0 0 1 0 21 98 100 100 100 100 100 100 100 100 100 100 100 100 100 100 100 100 100 100 100 100 100 100 100 100 100 100 100 98 91 100 25 16 50 21
0 5 2 5 5 5 4 0 0 0 0 2 0 20 30 100 100 100 100 100 100 100 100 100 100 100 100 100 100 100 100 100 100 100 100 100 100 100 100 100 100 100 100 80 94 76 86 44 74
0 0 0 5 5 5 5 0 0 0 0 0 0 37 100 100 100 100 100 99 100 100 100 100 100 100 94 100 100 100 100 100 100 100 100 100 100 100 100 100 100 100 91 100 97 76 88 96 98
0 0 0 4 5 5 5 0 0 0 0 0 27 0 85 100 100 100 100 100 100 100 100 100 100 100 100 100 100 100 100 100 100 100 100 100 100 100 100 100 100 100 100 100 100 100 100 100 100
0 0 0 2 5 5 5 1 0 0 0 1 49 71 96 48 100 100 100 100 100 100 100 99 100 100 100 100 100 100 100 100 100 100 100 100 100 100 100 100 100 100 100 100 100 100 100 100 100
0 0 0 5 5 5 5 8 0 0 0 0 7 60 25 80 100 100 100 100 100 100 100 100 100 100 100 100 100 100 100 100 100 100 100 100 100 100 100 100 100 100 100 100 100 100 100 100 100
0 0 0 0 5 9 5 19 2 0 0 0 0 35 85 59 100 100 100 100 100 100 100 100 100 100 100 100 100 100 100 100 100 100 100 100 100 100 100 100 100 100 100 100 100 100 100 100 100

GFSSGP_prec_cloud_138.txt.gz
Cloud_Cover
45 100 68 66 1 2 2 0 0 0 0 0 1 0 0 0 3 21 1 18 14 0 39 74 0 0 88 100 100 99 100 19 32 3 2 0 0 16 16 14 10 22 5 13 22 2 8 1 22
94 66 44 100 27 5 2 0 0 0 0 0 0 0 0 13 0 0 2 4 2 5 24 94 0 0 0 85 100 100 99 86 16 36 5 0 0 2 20 4 14 9 2 1 8 8 1 2 32
7 38 75 5 5 14 4 0 0 0 0 0 0 0 0 0 0 0 0 1 0 0 12 76 1 0 0 0 46 100 100 100 21 5 24 1 0 3 0 12 3 7 2 8 8 14 6 0 11
16 5 4 2 0 0 0 0 0 0 0 0 0 0 0 0 0 0 1 0 0 0 8 100 5 5 8 21 10 59 99 97 65 5 5 6 4 4 5 4 14 7 14 4 7 7 3 1 0
5 2 0 1 0 0 0 0 0 0 0 0 0 0 0 0 0 0 18 0 0 0 4 50 5 8 5 25 88 1 4 100 76 30 8 24 74 22 6 7 10 4 14 9 4 5 10 4 11
88 5 4 5 0 0 0 0 0 0 0 0 0 0 0 0 0 1 49 37 1 0 0 87 44 5 8 5 18 76 4 6 100 37 71 87 77 88 42 5 5 4 18 6 7 42 20 24 82
4 5 9 4 0 0 0 0 0 0 0 0 0 0 0 0 0 0 31 42 30 7 2 43 61 44 5 86 11 86 5 5 8 50 100 100 100 94 24 14 43 5 2 3 2 2 4 26 52
22 58 13 0 0 0 0 0 0 0 0 0 0 0 0 0 0 1 42 35 100 4 36 34 52 35 100 46 56 100 100 96 10 75 14 99 100 84 92 7 58 5 2 7 2 0 26 82 27
34 6 0 0 0 0 0 0 0 0 0 0 0 0 0 0 0 0 10 99 100 60 12 56 7 37 48 35 12 61 100 100 100 100 100 100 88 100 100 79 66 7 7 3 0 2 53 18 0
6 5 0 0 0 0 0 0 0 0 0 0 0 0 0 0 0 0 0 3 100 100 83 6 13 10 49 62 54 88 100 100 100 100 100 100 100 100 100 100 100 99 100 16 81 74 6 5 60
5 0 0 0 0 0 0 0 0 0 0 0 0 0 0 0 0 0 0 0 0 32 100 62 70 61 51 36 46 93 99 100 100 100 100 100 100 100 100 91 75 100 100 100 100 96 29 47 15
5 0 0 0 0 0 0 0 0 0 0 0 0 0 0 0 0 0 0 0 0 0 15 84 82 100 79 87 40 36 99 100 100 100 100 100 100 100 100 100 100 99 70 100 99 70 67 38 93
1 0 0 0 0 0 0 0 0 0 0 0 0 0 0 0 0 0 0 0 0 0 0 7 92 99 88 60 34 18 70 100 100 100 100 100 100 100 100 100 100 100 100 100 100 100 100 100 61
0 0 0 0 0 0 0 0 0 0 0 0 0 0 0 0 0 0 0 0 4 0 0 0 0 100 91 75 1 3 13 100 100 100 100 100 100 100 100 100 100 100 100 100 100 100 100 100 100
0 0 0 0 0 0 0 0 0 0 0 0 0 0 0 0 0 0 0 0 5 3 0 0 0 1 51 40 10 22 1 65 100 100 100 100 100 100 100 100 100 100 100 100 100 100 100 100 80
0 0 0 0 0 0 0 0 0 0 0 0 0 0 0 0 0 0 0 0 5 5 3 0 0 0 18 42 94 100 44 35 100 100 100 100 100 100 100 100 98 100 100 100 100 100 100 100 61
0 0 0 0 0 0 0 0 0 0 0 0 0 0 0 0 0 0 8 46 3 10 6 5 0 0 8 84 55 50 20 34 52 100 100 100 100 100 100 100 100 100 99 100 88 99 100 100 100
0 0 0 0 0 0 0 0 0 0 0 0 0 0 0 0 0 3 5 37 99 22 60 5 5 0 72 100 71 18 88 39 100 100 100 100 100 100 100 100 100 100 100 100 100 100 99 100 100
0 0 0 0 0 0 0 1 4 0 0 0 0 0 0 0 2 55 47 32 74 100 100 100 0 0 94 100 84 25 66 50 100 100 100 100 100 100 100 100 100 100 100 100 100 100 100 100 100
0 0 0 0 0 0 0 5 0 0 0 0 0 0 0 2 9 82 100 54 92 100 100 100 48 27 100 100 50 53 75 83 94 100 100 100 100 100 100 100 100 100 100 100 100 100 100 100 84
0 0 0 0 0 0 0 5 0 0 0 0 0 0 20 33 70 100 57 62 68 82 95 100 86 100 100 100 68 71 100 100 100 100 100 100 100 100 100 100 100 96 100 100 100 100 100 100 100
0 0 0 0 0 1 0 5 0 0 0 0 0 2 35 97 100 100 100 100 100 100 100 100 100 96 85 100 94 79 94 100 100 100 100 100 100 100 100 100 100 100 100 100 100 100 100 100 82
0 0 0 0 0 0 3 0 0 2 0 0 0 11 53 94 100 100 100 100 100 100 100 100 100 100 97 100 100 100 100 100 100 100 100 100 100 100 100 100 100 100 100 100 100 100 100 100 87
0 0 0 0 3 0 3 0 0 0 0 0 0 6 50 100 100 100 100 100 100 100 100 100 100 100 100 100 100 100 100 100 100 100 100 100 100 100 100 100 100 100 90 99 76 76 89 51 6
0 0 0 0 5 4 2 0 5 3 0 0 0 7 60 64 100 100 100 100 100 100 100 100 100 100 100 100 100 100 100 100 100 100 100 100 100 100 100 100 100 100 100 100 74 100 100 93 70
0 0 0 71 0 5 0 0 5 5 0 0 0 11 78 99 100 100 100 100 97 100 100 100 100 100 100 100 100 100 100 100 100 100 100 100 100 100 100 100 100 100 100 100 100 81 96 37 91
0 0 0 0 0 0 0 0 4 5 0 0 0 16 51 100 78 99 100 100 100 100 100 100 100 100 100 100 100 100 100 100 100 100 100 100 100 100 100 100 100 100 100 100 100 100 100 97 93
0 0 0 0 15 0 0 0 0 5 2 0 0 3 25 79 78 68 100 100 100 100 100 100 100 100 100 100 100 100 100 100 100 100 100 100 100 100 100 100 100 100 100 100 100 100 100 100 100
0 0 0 0 0 0 0 0 0 4 2 0 0 0 8 9 88 100 100 100 100 100 100 100 100 100 100 100 100 100 100 100 100 100 100 100 100 100 100 100 100 100 100 100 100 100 100 100 100
0 0 0 0 0 0 0 0 0 0 4 0 0 0 0 12 87 97 100 100 100 100 100 100 100 100 100 100 96 100 100 100 100 100 100 100 100 100 100 100 100 100 100 100 100 100 100 100 100

GFSSGP_prec_cloud_141.txt.gz
Cloud_Cover
5 27 3 1 5 11 41 0 1 1 1 0 0 0 0 0 6 22 4 13 0 0 52 58 0 0 0 89 95 39 100 100 100 76 73 68 7 12 22 9 0 10 11 17 18 11 12 1 12
7 40 61 82 46 96 43 12 0 19 3 1 0 0 1 88 0 9 25 0 27 6 12 74 1 1 0 0 64 99 17 83 100 100 100 100 50 10 13 7 5 1 1 15 15 7 1 24 11
100 100 83 18 43 10 18 4 0 0 0 0 0 0 15 63 0 1 0 0 0 0 6 59 3 5 0 0 0 75 100 13 68 100 100 100 83 38 10 12 8 8 13 12 16 8 14 16 0
100 79 88 100 100 2 4 2 0 0 0 0 0 0 0 0 0 0 1 0 0 0 14 73 0 4 13 4 0 0 52 100 51 73 100 100 98 42 44 7 6 6 4 4 9 3 20 0 0
100 100 70 4 0 1 0 0 0 0 0 0 0 0 9 0 0 0 14 0 0 1 14 0 2 4 22 64 8 0 1 25 100 100 100 100 94 95 12 7 6 6 14 11 16 14 8 7 1
100 100 55 5 1 1 1 3 0 0 0 0 0 0 2 0 0 0 1 5 0 31 82 4 13 3 4 6 86 60 5 12 5 100 100 100 70 6 60 55 7 5 12 63 15 21 28 12 1
100 22 5 2 4 5 4 0 0 0 0 0 0 0 0 0 0 0 6 49 26 26 44 65 45 5 4 5 1 37 7 5 4 0 99 100 100 51 6 5 5 5 6 18 17 18 22 25 0
10 52 3 5 5 0 0 0 0 0 0 0 0 0 0 0 0 0 7 22 0 15 70 100 9 59 38 6 2 35 100 6 9 6 2 28 100 69 91 100 12 10 5 8 7 12 41 82 0
100 75 5 5 6 0 0 0 0 0 0 0 0 0 0 0 0 0 0 0 20 1 98 100 9 35 35 65 8 6 98 100 84 59 94 36 100 57 51 100 100 94 23 20 81 43 99 2 1
43 5 5 5 3 0 0 0 0 0 0 0 0 0 0 0 0 0 0 0 2 25 19 97 27 19 32 30 65 91 8 100 100 100 100 100 100 100 100 100 100 100 99 85 87 15 5 4 49
8 5 29 57 2 0 0 0 0 0 0 0 0 0 0 0 0 0 0 0 0 1 24 47 84 22 13 13 58 99 99 62 100 100 100 100 100 100 100 100 100 100 100 80 63 36 9 99 61
100 100 94 5 0 0 0 0 0 0 0 0 0 0 0 0 0 0 0 0 0 0 0 13 82 64 13 14 56 89 100 96 100 100 100 100 100 100 100 100 100 100 100 100 77 46 32 57 45
100 90 5 5 0 0 0 0 0 0 0 0 0 0 0 0 0 0 0 0 0 0 0 0 50 63 90 21 38 81 99 100 100 100 100 100 100 100 100 100 100 100 100 100 60 63 95 74 76
99 8 5 0 0 0 0 0 0 0 0 0 0 0 0 0 0 0 0 0 0 0 0 0 0 41 33 72 26 100 79 78 22 100 100 100 100 100 100 100 100 100 100 100 100 100 100 100 74
100 16 2 0 0 0 0 0 0 0 0 0 0 0 0 0 0 0 0 0 0 0 0 0 0 0 11 100 100 96 67 98 100 94 100 100 100 100 100 100 100 100 100 100 100 100 100 100 100
100 27 0 0 0 0 0 0 0 0 0 0 0 0 0 0 0 0 0 0 0 0 2 4 5 0 0 93 100 100 100 99 39 76 100 100 100 100 100 100 100 100 100 100 100 100 100 100 100
78 22 0 0 0 0 0 0 0 0 0 0 0 0 2 0 0 0 22 23 0 11 54 41 5 0 0 0 96 100 85 93 56 16 100 100 100 100 100 100 100 100 100 100 100 100 100 100 100
100 1 0 0 0 0 0 0 0 0 0 0 0 0 0 2 0 0 5 23 19 5 96 100 28 0 0 0 71 100 100 45 37 98 100 100 100 100 100 100 100 100 100 100 100 100 100 100 100
85 0 0 0 0 0 0 0 0 0 0 0 0 0 0 0 0 0 4 1 8 23 75 100 58 5 1 16 100 100 86 40 42 27 97 100 100 100 100 100 100 100 100 100 100 99 100 100 100
5 0 0 0 0 0 0 0 0 0 0 0 0 0 0 0 2 63 91 100 48 9 46 100 99 48 22 28 100 100 100 24 52 100 100 100 100 100 100 100 100 100 100 100 100 100 100 100 100
0 0 0 0 0 0 0 0 0 0 0 0 0 0 0 1 93 94 100 83 92 56 79 100 100 87 74 16 96 90 98 76 100 100 100 100 100 100 100 100 100 100 100 100 100 100 100 100 90
0 0 0 0 0 0 0 0 0 0 0 0 0 0 9 74 100 100 100 100 100 100 100 100 100 100 75 99 100 91 37 64 100 99 100 100 100 100 100 100 100 100 100 100 100 100 100 100 100
0 0 0 0 0 0 0 0 0 0 0 0 4 0 20 57 100 100 100 100 100 100 100 100 100 100 100 100 100 76 90 69 100 100 100 100 100 100 100 100 100 100 100 100 100 100 100 100 100
0 0 0 0 0 0 0 0 0 0 0 0 5 1 3 36 100 100 100 100 100 100 100 99 100 100 73 54 74 97 100 100 100 100 100 100 100 100 100 100 100 100 100 100 100 100 99 100 100
0 0 0 0 4 0 0 0 0 0 0 0 5 2 2 37 100 95 100 100 100 100 100 100 100 100 100 100 100 100 100 100 100 100 100 100 100 100 100 100 100 100 100 100 100 100 100 96 79
5 0 0 71 0 0 0 0 0 0 0 0 5 0 3 98 100 100 100 100 100 100 100 100 100 100 100 100 100 100 100 100 100 100 100 100 100 100 100 100 100 100 100 100 100 100 100 100 91
46 2 0 0 0 0 0 0 0 0 0 0 0 4 11 94 100 100 80 99 100 100 100 100 100 100 100 100 100 100 100 100 100 100 100 100 100 100 100 100 100 100 100 100 100 99 94 49 92
10 37 0 0 6 0 0 0 0 0 0 0 0 5 18 100 100 73 100 96 100 100 100 100 100 100 100 100 100 100 100 100 100 100 100 100 100 100 100 100 100 100 100 100 100 100 100 100 100
98 42 15 0 0 0 0 0 0 0 0 0 0 0 4 63 98 100 100 99 100 100 100 100 100 100 100 100 100 100 100 100 100 100 100 100 100 100 100 100 100 100 100 100 100 100 100 100 100
100 8 95 0 0 0 0 0 0 0 0 0 0 0 1 46 47 100 100 100 100 100 95 99 100 100 100 100 100 100 100 100 100 100 100 100 100 100 100 100 100 100 100 100 100 100 100 100 100

GFSSGP_prec_cloud_144.txt.gz
Cloud_Cover
73 49 5 13 4 3 0 1 5 4 5 1 0 0 0 0 3 2 0 11 2 0 0 1 0 0 0 0 1 60 32 3 5 100 100 100 98 19 12 5 4 3 10 1 3 13 18 0 0
100 46 27 14 30 22 9 16 87 90 10 0 0 0 8 1 0 0 2 0 0 0 0 3 0 0 0 0 0 0 84 97 5 6 100 100 100 100 93 48 70 7 5 10 11 14 62 0 0
100 100 78 100 100 100 100 29 5 3 3 0 0 0 15 85 4 10 0 0 0 0 0 0 0 0 0 0 0 0 1 96 100 28 65 100 100 100 100 99 100 80 21 10 10 1 8 0 0
100 100 100 100 100 91 18 71 98 34 0 0 0 0 0 0 0 0 0 0 0 0 0 0 0 0 0 0 0 0 14 19 100 100 66 100 100 100 100 100 100 100 82 18 11 17 0 0 0
100 100 100 100 100 100 100 100 6 0 1 0 0 0 0 0 0 0 2 0 0 8 0 0 0 0 4 1 0 1 6 8 0 59 99 13 92 100 100 100 100 65 52 65 6 5 5 2 0
100 100 100 100 100 68 96 100 14 0 0 0 0 0 0 0 0 0 0 0 7 74 20 0 0 0 0 0 0 0 2 7 5 0 12 100 64 56 100 100 100 100 75 46 10 5 10 21 58
100 100 100 100 100 100 91 4 1 0 0 0 0 0 0 0 0 0 0 0 0 59 94 0 0 0 0 0 1 4 0 0 3 5 0 2 100 100 95 100 100 100 100 98 81 39 5 16 7
100 100 100 100 100 100 34 0 0 0 0 0 0 0 0 0 0 0 1 0 0 0 67 71 2 2 0 0 0 1 0 2 0 5 6 7 4 94 100 100 100 100 100 100 15 8 5 5 5
100 100 100 100 64 86 32 2 0 0 0 0 0 0 0 0 0 0 0 0 0 0 6 0 27 13 8 19 0 0 0 4 17 5 83 100 100 68 96 100 87 100 86 49 92 30 15 6 5
100 100 100 100 100 5 6 4 5 0 0 0 0 0 0 0 0 0 0 0 0 0 0 0 2 32 0 0 26 3 3 65 52 99 100 100 100 100 100 25 54 16 76 93 63 6 28 15 66
100 100 100 100 3 10 14 74 5 0 0 0 0 0 0 0 0 0 0 0 0 0 0 0 0 0 1 4 48 64 48 98 90 88 100 100 100 100 100 99 87 50 20 76 81 96 99 85 57
100 100 90 29 28 30 72 5 4 0 0 0 0 0 0 0 0 0 0 0 0 0 0 0 0 0 0 2 14 54 100 99 100 100 100 100 100 100 100 100 100 100 100 71 98 100 82 100 94
32 93 86 86 100 100 71 5 0 0 0 0 0 0 0 0 0 0 0 0 0 0 0 0 0 0 14 6 4 86 79 100 100 100 100 100 100 100 100 100 100 100 100 100 100 75 86 100 96
100 100 100 100 100 46 7 0 0 0 0 0 0 0 0 0 0 0 0 0 0 0 0 0 0 0 0 96 21 18 58 100 100 100 100 100 100 100 100 100 100 100 100 100 100 100 100 87 100
48 96 100 100 5 5 3 0 0 0 0 0 0 0 0 0 0 0 0 0 0 0 0 0 0 0 0 0 72 33 2 100 100 100 100 100 100 100 100 100 100 100 100 100 100 100 100 100 100
53 6 6 60 5 5 0 0 0 0 0 0 0 0 0 0 0 0 0 1 0 0 0 0 0 2 2 0 22 100 100 68 100 100 100 100 100 100 100 100 100 100 100 100 100 100 100 100 100
5 24 82 96 7 2 0 0 0 0 0 0 0 0 1 1 0 6 45 4 0 6 0 0 5 0 5 5 0 95 100 100 100 100 100 100 100 100 100 100 100 100 100 100 100 100 100 100 100
1 5 5 5 5 0 0 0 0 0 0 0 0 0 0 0 1 3 0 0 0 0 48 64 0 0 92 5 16 76 100 100 100 100 100 100 100 100 100 100 100 100 100 95 100 100 100 100 100
0 3 0 5 4 0 0 0 0 0 0 0 0 0 0 0 0 0 0 0 0 0 1 100 23 28 100 5 5 100 100 100 100 100 100 100 100 100 100 100 100 100 100 100 81 100 100 100 100
0 0 0 0 0 0 0 0 0 0 0 0 0 0 0 0 0 0 18 2 0 16 64 3 5 42 64 5 38 85 100 58 66 100 76 17 100 100 100 100 100 100 100 100 100 100 100 88 100
0 0 0 0 0 0 0 0 0 0 0 0 0 0 0 0 0 19 100 100 71 68 18 60 64 46 5 35 67 56 88 98 78 94 95 95 97 100 100 100 100 100 100 100 100 100 100 96 90
0 0 0 0 0 0 0 0 0 0 0 0 0 0 0 0 5 99 100 100 100 100 98 99 92 1 14 100 6 29 99 90 92 100 100 100 100 100 100 100 100 100 100 100 100 100 100 100 100
2 0 0 0 0 0 0 0 0 0 0 0 0 0 0 0 91 100 100 100 100 100 100 100 100 66 91 7 4 97 48 54 91 100 99 84 100 100 100 100 100 100 100 100 100 100 100 100 100
8 0 0 0 0 0 0 0 0 0 0 0 0 0 0 0 94 100 100 100 100 100 100 100 100 90 50 33 80 7 54 96 100 100 100 100 100 100 100 100 100 100 100 100 100 100 100 100 100
100 5 0 0 1 0 0 0 0 0 0 0 0 0 0 1 100 100 100 100 100 100 100 100 100 100 100 98 100 100 100 74 100 100 100 100 100 100 100 100 100 100 100 100 100 100 100 100 99
92 92 16 2 1 0 0 0 0 0 0 0 0 0 0 5 100 100 100 100 100 100 100 96 100 100 100 100 100 100 100 100 100 100 100 100 100 100 100 100 100 100 100 100 100 100 100 100 100
89 100 48 7 5 0 0 0 0 0 0 0 0 0 0 4 82 100 100 100 100 98 100 98 100 100 100 100 100 100 100 100 100 100 100 100 100 100 100 100 100 100 100 100 100 100 100 100 100
96 100 100 100 19 5 0 0 0 0 0 0 0 0 0 9 100 100 100 99 100 100 100 100 100 100 100 100 100 100 100 100 100 100 100 100 100 100 100 100 100 100 100 100 100 100 100 100 100
99 86 100 100 83 49 43 0 0 0 0 0 0 0 0 0 100 100 100 100 100 100 100 100 100 100 100 100 100 100 100 100 100 100 100 100 100 100 100 100 100 100 100 100 100 100 100 100 100
12 14 55 100 100 100 19 36 0 0 0 0 0 0 0 0 14 100 100 100 100 100 100 100 100 100 100 100 100 100 100 100 100 100 100 100 100 100 100 100 100 100 100 100 100 100 100 100 100

GFSSGP_prec_cloud_147.txt.gz
Cloud_Cover
8 46 16 68 43 8 6 5 5 1 0 0 2 0 5 3 0 2 0 3 2 0 0 0 0 0 0 0 2 0 2 4 0 0 2 5 64 30 6 5 19 2 2 4 5 4 12 0 0
100 88 96 100 100 5 62 14 5 8 6 12 3 0 0 2 0 0 0 0 0 2 2 4 0 0 0 0 2 0 0 0 15 7 0 4 11 93 100 100 70 8 12 3 2 0 0 0 0
100 98 100 100 100 99 100 91 100 88 47 5 1 5 3 0 0 0 0 0 0 0 0 0 0 0 0 0 0 0 0 0 0 62 91 15 63 92 94 100 100 98 14 5 6 3 4 2 0
100 100 100 100 100 46 100 97 20 100 58 42 15 5 0 0 2 0 0 0 0 0 0 0 0 0 0 0 0 0 16 16 0 0 5 100 19 80 100 100 100 100 100 98 61 26 8 5 0
84 97 100 100 90 100 100 100 57 100 100 100 16 4 0 0 0 0 0 0 0 0 0 0 0 0 0 0 0 4 20 5 0 0 0 2 97 44 18 100 100 100 100 100 100 100 87 9 5
100 100 100 100 100 100 100 100 100 100 58 51 0 0 0 0 0 0 0 0 0 0 0 0 0 0 0 0 0 0 2 6 0 0 0 0 0 98 89 43 100 100 100 100 100 100 100 100 73
100 100 95 100 100 100 100 100 100 76 100 58 7 0 0 0 0 0 0 0 0 0 3 29 98 96 98 79 0 0 14 3 0 0 0 0 0 8 58 100 94 100 100 100 100 100 100 100 85
100 100 100 100 100 100 100 100 100 100 100 54 2 0 0 0 0 0 0 0 0 0 0 0 0 0 0 60 93 74 10 1 14 0 0 0 3 4 5 19 100 69 100 100 100 100 100 100 100
100 100 100 100 100 100 100 100 100 97 60 2 3 0 0 0 0 0 0 0 0 1 0 0 0 13 5 28 2 5 96 5 5 7 4 0 1 0 5 6 6 99 53 24 100 100 100 100 100
100 100 100 100 91 100 100 100 92 100 32 0 0 0 0 0 0 0 0 0 0 0 0 0 0 0 0 1 1 4 4 4 7 35 85 100 88 5 57 36 69 72 84 100 16 100 100 100 100
100 100 100 100 100 100 100 100 92 26 19 90 0 0 0 0 0 0 0 0 0 0 0 0 0 0 0 0 33 94 32 48 82 52 75 100 100 100 94 30 97 70 81 63 99 100 99 29 98
25 96 95 100 100 100 100 100 18 6 60 45 0 4 0 0 0 0 0 0 0 0 0 0 0 0 0 27 33 54 76 21 100 95 100 100 100 100 100 100 99 100 100 97 95 82 10 68 99
7 7 44 68 38 88 100 82 45 24 22 4 5 0 0 0 0 0 0 0 0 0 0 0 0 0 0 4 80 55 100 31 46 99 100 100 100 100 100 100 100 100 100 100 100 83 61 64 100
5 5 93 100 20 74 88 52 72 60 5 5 0 0 0 0 0 0 0 0 0 0 0 0 0 0 0 2 88 80 100 100 100 94 100 100 100 100 100 100 100 100 100 100 100 100 100 74 100
51 25 43 7 100 100 100 84 91 4 5 0 0 0 0 0 0 0 0 0 0 0 0 0 0 0 0 0 28 98 92 61 100 100 35 100 100 100 100 100 100 100 100 100 100 100 100 100 100
0 4 5 1 11 64 100 15 5 0 0 0 0 0 0 0 0 0 0 0 0 0 0 0 0 0 0 0 5 73 76 90 55 48 94 100 100 100 100 100 100 100 100 100 100 100 100 100 100
0 0 0 5 96 64 45 6 5 0 0 0 0 0 0 0 0 0 0 0 0 0 0 0 10 0 5 5 2 4 100 74 60 66 100 100 100 100 100 100 100 100 100 100 100 100 80 100 100
0 0 0 2 7 63 23 7 0 0 0 0 0 0 0 0 0 0 0 0 0 0 0 0 0 7 44 7 4 4 100 41 37 40 100 100 100 100 100 100 100 100 100 100 100 100 100 100 100
0 0 0 0 1 5 3 5 0 0 0 0 0 0 0 0 0 0 0 0 0 0 0 0 0 0 3 68 17 5 84 87 38 75 100 100 100 99 100 100 100 100 100 100 100 100 99 100 92
0 1 0 0 0 2 5 4 0 0 0 0 0 0 0 0 0 0 0 0 0 0 0 0 0 0 0 4 7 90 25 97 76 48 100 100 100 100 100 100 100 100 100 100 100 100 99 77 99
7 1 0 0 0 0 0 4 0 0 0 0 0 0 0 0 0 0 0 0 31 30 14 1 0 0 0 3 5 100 96 34 32 35 100 100 100 100 100 100 100 100 100 100 100 100 100 100 78
47 5 4 0 0 0 0 4 0 0 0 0 0 0 0 0 0 0 48 89 100 100 92 56 12 0 82 100 100 84 100 25 74 41 100 100 100 100 100 100 100 100 100 100 100 100 100 100 100
92 5 5 1 5 0 0 2 0 0 0 0 0 0 0 0 0 24 100 89 100 100 100 100 71 1 13 9 19 5 5 7 17 62 99 100 100 100 100 100 100 100 100 100 100 100 100 100 100
48 5 25 11 1 4 0 0 0 0 0 0 0 0 0 0 0 98 100 85 98 100 74 99 94 58 25 15 0 2 87 76 86 97 100 100 100 100 100 100 100 100 100 100 100 100 100 100 100
14 5 4 37 5 5 0 0 0 0 0 0 0 0 0 0 10 100 100 100 99 100 97 90 100 100 100 90 98 100 51 100 100 100 100 100 100 100 100 100 100 100 100 100 100 100 100 100 100
10 5 7 4 96 53 3 0 0 0 0 0 0 0 0 0 71 100 100 100 99 100 100 100 98 100 100 100 100 100 98 96 98 100 100 100 100 100 100 100 100 100 100 100 100 100 100 100 100
21 60 58 18 49 73 68 4 1 0 0 0 0 0 0 0 74 100 100 100 100 100 100 100 100 100 100 100 100 100 100 100 100 100 100 100 100 100 100 100 100 100 100 100 100 100 100 100 100
88 15 71 66 17 100 100 5 5 2 0 0 0 0 0 0 71 100 100 100 100 88 100 100 100 100 100 100 100 100 100 100 100 100 100 100 100 100 100 100 100 100 100 100 100 100 100 100 100
100 8 72 44 76 11 100 100 100 5 3 0 0 0 0 0 10 100 100 100 100 79 100 100 100 100 100 100 100 100 100 100 100 100 100 100 100 100 100 100 100 100 100 100 100 100 100 100 100
100 5 5 5 100 100 98 100 100 89 5 0 0 0 0 0 100 100 100 100 100 100 100 100 100 100 100 100 100 100 100 100 100 100 100 100 100 100 100 100 100 100 100 100 100 100 100 100 100